Weather History for Saranac Lake, NY

Change the Weather History Date:

Wednesday, November 9, 2011

  Actual Average Record
Temperature  
Mean Temperature 48 °F 35 °F  
Max Temperature 67 °F 45 °F 67 °F (2011)
Min Temperature 28 °F 25 °F 2 °F (1971)
Degree Days  
Heating Degree Days 17 30  
Month to date heating degree days 242 258  
Since 1 July heating degree days 1229 1550  
Moisture  
Dew Point 32 °F    
Average Humidity 62    
Maximum Humidity 100    
Minimum Humidity 24    
Precipitation  
Precipitation 0.00 in 0.12 in 1.22 in (1972)
Month to date precipitation 0.01 1.12  
Year to date precipitation 39.29 33.00  
Sea Level Pressure  
Sea Level Pressure 30.08 in    
Wind  
Wind Speed 6 mph (South)    
Max Wind Speed 20 mph    
Max Gust Speed 23 mph    
Visibility 4 miles    
Events Fog    
T = Trace of Precipitation, MM = Missing Value Source: NWS Daily Summary

Daily Weather History Graph

Daily Weather History Graph

Search for Another Location

Airport:

Trip Planner

Search our weather history database for the weather conditions in past years. The results will help you decide how hot, cold, wet, or windy it might be!

Date:

Astronomy

Nov. 09, 2011 Rise Set
Actual Time 6:44 AM EST 4:36 PM EST
Civil Twilight 6:13 AM EST 5:07 PM EST
Nautical Twilight 5:38 AM EST 5:41 PM EST
Astronomical Twilight 5:04 AM EST 6:15 PM EST
Moon 3:46 PM EST (11/9) 5:37 AM EST (11/9)
Length of Visible Light 10h 53m
Length of Day
9h 51m
Waxing Gibbous, 99% of the Moon is Illuminated
Nov 9
Waxing Gibbous
Nov 10
Full
Nov 18
Last Quarter
Nov 25
New
Dec 2
First Quarter

Hourly Weather History & Observations

Time (EST) Temp. Dew Point Humidity Pressure Visibility Wind Dir Wind Speed Gust Speed Precip Events Conditions
12:03 AM 35.6 °F 35.6 °F 100% 30.14 in 0.8 mi Calm Calm - N/A   Clear
12:18 AM 35.6 °F 35.6 °F 100% 30.14 in 0.2 mi Calm Calm - N/A Fog Fog
12:31 AM 35.6 °F 35.6 °F 100% 30.14 in 1.0 mi Calm Calm - N/A   Mist
12:46 AM 35.6 °F 33.8 °F 93% 30.14 in 2.0 mi Calm Calm - N/A   Partly Cloudy
12:47 AM 35.1 °F 34.0 °F 96% 30.17 in 2.0 mi Calm Calm - N/A   Clear
12:58 AM 33.8 °F 33.8 °F 100% 30.14 in 1.0 mi Calm Calm - N/A   Clear
1:05 AM 35.6 °F 33.8 °F 93% 30.14 in 0.5 mi Calm Calm - N/A Fog Fog
1:19 AM 35.6 °F 33.8 °F 93% 30.14 in 1.2 mi Calm Calm - N/A   Scattered Clouds
1:28 AM 33.8 °F 33.8 °F 100% 30.14 in 3.0 mi Calm Calm - N/A   Scattered Clouds
1:40 AM 35.6 °F 33.8 °F 93% 30.14 in 2.5 mi Calm Calm - N/A   Mostly Cloudy
1:44 AM 35.6 °F 33.8 °F 93% 30.13 in 0.8 mi Calm Calm - N/A   Mist
1:49 AM 35.6 °F 33.8 °F 93% 30.14 in 0.2 mi Calm Calm - N/A Fog Fog
1:51 AM 34.0 °F 34.0 °F 100% 30.17 in 0.2 mi Calm Calm - N/A Fog Fog
1:57 AM 33.8 °F 33.8 °F 100% 30.14 in 1.2 mi Calm Calm - N/A   Overcast
2:28 AM 32.0 °F 30.2 °F 93% 30.13 in 3.0 mi Calm Calm - N/A   Mostly Cloudy
2:51 AM 32.0 °F 30.9 °F 96% 30.16 in 3.0 mi Calm Calm - N/A   Mostly Cloudy
2:58 AM 32.0 °F 30.2 °F 93% 30.13 in 4.0 mi Calm Calm - N/A   Scattered Clouds
3:51 AM 30.0 °F 28.9 °F 96% 30.15 in 4.0 mi Calm Calm - N/A   Clear
4:08 AM 30.2 °F 30.2 °F 100% 30.11 in 4.0 mi Calm Calm - N/A   Partly Cloudy
4:29 AM 28.4 °F 28.4 °F 100% 30.11 in 6.0 mi Calm Calm - N/A   Mostly Cloudy
4:43 AM 28.4 °F 28.4 °F 100% 30.12 in 1.8 mi Calm Calm - N/A   Mostly Cloudy
4:51 AM 28.9 °F 28.0 °F 96% 30.15 in 1.5 mi Calm Calm - N/A   Mostly Cloudy
4:54 AM 28.4 °F 26.6 °F 93% 30.11 in 3.0 mi Calm Calm - N/A   Mostly Cloudy
5:09 AM 28.4 °F 28.4 °F 100% 30.11 in 1.8 mi Calm Calm - N/A   Mostly Cloudy
5:13 AM 28.4 °F 28.4 °F 100% 30.11 in 0.8 mi Calm Calm - N/A   Mist
5:23 AM 28.4 °F 26.6 °F 93% 30.11 in 0.2 mi Calm Calm - N/A Fog Light Freezing Fog
5:51 AM 28.0 °F 26.1 °F 92% 30.15 in 0.2 mi Calm Calm - N/A Fog Light Freezing Fog
6:00 AM 28.4 °F 26.6 °F 93% 30.11 in 0.2 mi Calm Calm - N/A Fog Light Freezing Fog
6:19 AM 28.4 °F 26.6 °F 93% 30.11 in 0.2 mi Calm Calm - N/A Fog Light Freezing Fog
6:27 AM 28.4 °F 26.6 °F 93% 30.11 in 0.5 mi Calm Calm - N/A Fog Light Freezing Fog
6:44 AM 28.4 °F 26.6 °F 93% 30.11 in 0.2 mi Calm Calm - N/A Fog Light Freezing Fog
6:51 AM 28.0 °F 27.0 °F 96% 30.15 in 0.5 mi Calm Calm - N/A Fog Light Freezing Fog
6:55 AM 28.4 °F 26.6 °F 93% 30.11 in 1.2 mi Calm Calm - N/A   Scattered Clouds
7:03 AM 28.4 °F 26.6 °F 93% 30.11 in 3.0 mi Calm Calm - N/A   Partly Cloudy
7:51 AM 32.0 °F 30.2 °F 93% 30.11 in 4.0 mi Calm Calm - N/A   Clear
8:01 AM 35.6 °F 33.8 °F 93% 30.11 in 4.0 mi Calm Calm - N/A   Partly Cloudy
8:51 AM 48.0 °F 44.1 °F 86% 30.12 in 9.0 mi Calm Calm - N/A   Clear
9:51 AM 57.0 °F 42.1 °F 57% 30.10 in 10.0 mi Calm Calm - N/A   Clear
10:51 AM 61.0 °F 39.0 °F 44% 30.09 in 10.0 mi SW 10.4 mph - N/A   Clear
11:51 AM 63.0 °F 37.0 °F 38% 30.04 in 10.0 mi SW 8.1 mph - N/A   Clear
12:51 PM 66.9 °F 28.0 °F 23% 30.01 in 10.0 mi SSW 18.4 mph 23.0 mph N/A   Clear
1:51 PM 64.9 °F 30.0 °F 27% 29.99 in 10.0 mi South 12.7 mph 20.7 mph N/A   Clear
2:51 PM 64.9 °F 27.0 °F 24% 29.97 in 10.0 mi South 13.8 mph - N/A   Clear
3:51 PM 62.1 °F 28.9 °F 29% 29.96 in 10.0 mi South 5.8 mph - N/A   Clear
4:51 PM 57.0 °F 35.1 °F 44% 29.96 in 10.0 mi SSE 4.6 mph - N/A   Clear
5:51 PM 57.0 °F 35.1 °F 44% 29.95 in 10.0 mi SE 6.9 mph - N/A   Clear
6:51 PM 57.9 °F 37.0 °F 46% 29.93 in 10.0 mi SSE 10.4 mph - N/A   Clear
7:51 PM 57.0 °F 35.1 °F 44% 29.90 in 10.0 mi SSE 5.8 mph - N/A   Clear
8:51 PM 54.0 °F 34.0 °F 47% 29.87 in 10.0 mi NW 3.5 mph - N/A   Clear
9:51 PM 55.0 °F 30.0 °F 38% 29.84 in 10.0 mi SSE 15.0 mph 19.6 mph N/A   Clear
10:51 PM 52.0 °F 30.0 °F 43% 29.84 in 10.0 mi SSE 10.4 mph - N/A   Clear
11:51 PM 48.9 °F 30.0 °F 48% 29.84 in 10.0 mi South 8.1 mph - N/A   Clear